Hourly Weather Göksun

Today, 17 May, Monday

Time Temperature Precipitation Wind Pressure Humidity
00:00 +11°C° 0 mm 1 mps 643 mmHg 83%
01:00 +11°C° 0 mm 1 mps 643 mmHg 81%
02:00 +11°C° 0 mm 1 mps 642 mmHg 82%
03:00 +11°C° 0 mm 1 mps 642 mmHg 83%
04:00 +11°C° 0 mm 1 mps 643 mmHg 84%
05:00 +11°C° 0 mm 1 mps 643 mmHg 85%
06:00 +13°C° 0.3 mm 1 mps 643 mmHg 74%
07:00 +15°C° 0.3 mm 2 mps 644 mmHg 63%
08:00 +16°C° 0.3 mm 2 mps 644 mmHg 53%
09:00 +17°C° 0.3 mm 3 mps 644 mmHg 50%
10:00 +18°C° 0.3 mm 3 mps 645 mmHg 46%
11:00 +19°C° 0.3 mm 3 mps 645 mmHg 43%
12:00 +19°C° 0.2 mm 3 mps 645 mmHg 43%
13:00 +19°C° 0.2 mm 4 mps 645 mmHg 43%
14:00 +20°C° 0.2 mm 5 mps 645 mmHg 42%
15:00 +19°C° 0.1 mm 4 mps 645 mmHg 46%
16:00 +19°C° 0.1 mm 4 mps 645 mmHg 50%
17:00 +18°C° 0.1 mm 4 mps 645 mmHg 53%
18:00 +17°C° 0 mm 3 mps 646 mmHg 61%
19:00 +14°C° 0 mm 3 mps 646 mmHg 69%
20:00 +14°C° 0 mm 2 mps 646 mmHg 77%
21:00 +13°C° 0 mm 2 mps 646 mmHg 78%
22:00 +13°C° 0 mm 1 mps 646 mmHg 78%
23:00 +12°C° 0 mm 1 mps 646 mmHg 79%

Tomorrow, 18 May, Tuesday

Time Temperature Precipitation Wind Pressure Humidity
00:00 +12°C° 0 mm 1 mps 646 mmHg 77%
01:00 +12°C° 0 mm 1 mps 645 mmHg 76%
02:00 +11°C° 0 mm 1 mps 645 mmHg 74%
03:00 +12°C° 0 mm 1 mps 646 mmHg 72%
04:00 +12°C° 0 mm 1 mps 646 mmHg 70%
05:00 +11°C° 0 mm 0 mps 646 mmHg 68%
06:00 +14°C° 0 mm 1 mps 647 mmHg 60%
07:00 +18°C° 0 mm 1 mps 648 mmHg 51%
08:00 +20°C° 0 mm 1 mps 648 mmHg 43%
09:00 +21°C° 0 mm 1 mps 649 mmHg 40%
10:00 +21°C° 0 mm 2 mps 649 mmHg 37%
11:00 +23°C° 0 mm 2 mps 649 mmHg 35%
12:00 +24°C° 0 mm 3 mps 649 mmHg 36%
13:00 +24°C° 0 mm 3 mps 649 mmHg 36%
14:00 +25°C° 0 mm 4 mps 649 mmHg 37%
15:00 +23°C° 0 mm 4 mps 648 mmHg 41%
16:00 +22°C° 0 mm 4 mps 648 mmHg 44%
17:00 +21°C° 0 mm 3 mps 648 mmHg 48%
18:00 +19°C° 0 mm 3 mps 648 mmHg 57%
19:00 +18°C° 0 mm 2 mps 648 mmHg 67%
20:00 +16°C° 0 mm 2 mps 648 mmHg 77%
21:00 +15°C° 0 mm 2 mps 647 mmHg 80%
22:00 +15°C° 0 mm 2 mps 647 mmHg 84%
23:00 +14°C° 0 mm 2 mps 647 mmHg 88%

Day after tomorrow, 19 May, Wednesday

Time Temperature Precipitation Wind Pressure Humidity
00:00 +14°C° 0 mm 2 mps 647 mmHg 85%
01:00 +14°C° 0 mm 2 mps 647 mmHg 83%
02:00 +14°C° 0 mm 2 mps 647 mmHg 81%
03:00 +14°C° 0 mm 2 mps 647 mmHg 78%
04:00 +14°C° 0 mm 2 mps 647 mmHg 75%
05:00 +15°C° 0 mm 2 mps 647 mmHg 72%
06:00 +17°C° 0 mm 2 mps 648 mmHg 63%
07:00 +19°C° 0 mm 2 mps 649 mmHg 54%
08:00 +21°C° 0 mm 2 mps 649 mmHg 45%
09:00 +23°C° 0 mm 2 mps 650 mmHg 40%
10:00 +24°C° 0 mm 2 mps 650 mmHg 36%
11:00 +25°C° 0 mm 1 mps 650 mmHg 31%
12:00 +26°C° 0 mm 2 mps 650 mmHg 28%
13:00 +27°C° 0 mm 2 mps 650 mmHg 26%
14:00 +27°C° 0 mm 2 mps 650 mmHg 24%
15:00 +27°C° 0 mm 2 mps 650 mmHg 27%
16:00 +26°C° 0 mm 2 mps 649 mmHg 29%
17:00 +26°C° 0 mm 2 mps 649 mmHg 32%
18:00 +24°C° 0 mm 2 mps 649 mmHg 41%
19:00 +21°C° 0 mm 2 mps 649 mmHg 50%
20:00 +20°C° 0 mm 1 mps 648 mmHg 59%
21:00 +19°C° 0 mm 1 mps 648 mmHg 60%
22:00 +19°C° 0 mm 1 mps 648 mmHg 62%
23:00 +18°C° 0 mm 1 mps 647 mmHg 63%

20 May, Thursday

Time Temperature Precipitation Wind Pressure Humidity
00:00 +18°C° 0 mm 1 mps 647 mmHg 63%
01:00 +18°C° 0 mm 1 mps 647 mmHg 62%
02:00 +16°C° 0 mm 1 mps 647 mmHg 62%
03:00 +16°C° 0 mm 1 mps 647 mmHg 60%
04:00 +18°C° 0 mm 1 mps 647 mmHg 58%
05:00 +18°C° 0 mm 1 mps 647 mmHg 56%
06:00 +20°C° 0 mm 1 mps 648 mmHg 49%
07:00 +22°C° 0 mm 1 mps 648 mmHg 42%
08:00 +24°C° 0 mm 1 mps 649 mmHg 36%
09:00 +26°C° 0 mm 2 mps 649 mmHg 33%
10:00 +27°C° 0 mm 3 mps 649 mmHg 30%
11:00 +28°C° 0 mm 4 mps 649 mmHg 27%
12:00 +28°C° 0 mm 5 mps 649 mmHg 27%
13:00 +28°C° 0 mm 5 mps 649 mmHg 26%
14:00 +28°C° 0 mm 6 mps 649 mmHg 25%
15:00 +27°C° 0 mm 5 mps 649 mmHg 28%
16:00 +26°C° 0 mm 4 mps 649 mmHg 31%
17:00 +25°C° 0 mm 4 mps 648 mmHg 33%
18:00 +22°C° 0 mm 3 mps 648 mmHg 42%
19:00 +20°C° 0 mm 2 mps 648 mmHg 50%
20:00 +18°C° 0 mm 2 mps 647 mmHg 59%
21:00 +17°C° 0 mm 2 mps 647 mmHg 61%
22:00 +18°C° 0 mm 1 mps 647 mmHg 62%
23:00 +16°C° 0 mm 1 mps 647 mmHg 64%

21 May, Friday

Time Temperature Precipitation Wind Pressure Humidity
00:00 +16°C° 0 mm 1 mps 646 mmHg 61%
01:00 +15°C° 0 mm 1 mps 646 mmHg 58%
02:00 +15°C° 0 mm 1 mps 646 mmHg 55%
03:00 +15°C° 0 mm 1 mps 646 mmHg 50%
04:00 +15°C° 0 mm 1 mps 646 mmHg 45%
05:00 +15°C° 0 mm 1 mps 646 mmHg 40%
06:00 +19°C° 0 mm 1 mps 647 mmHg 32%
07:00 +22°C° 0 mm 1 mps 648 mmHg 25%
08:00 +25°C° 0 mm 2 mps 649 mmHg 18%
09:00 +26°C° 0 mm 3 mps 649 mmHg 17%
10:00 +27°C° 0 mm 3 mps 649 mmHg 16%
11:00 +28°C° 0 mm 4 mps 649 mmHg 16%
12:00 +28°C° 0 mm 5 mps 649 mmHg 16%
13:00 +28°C° 0 mm 5 mps 649 mmHg 17%
14:00 +28°C° 0 mm 5 mps 649 mmHg 17%
15:00 +28°C° 0 mm 4 mps 649 mmHg 20%
16:00 +27°C° 0 mm 4 mps 649 mmHg 23%
17:00 +26°C° 0 mm 3 mps 648 mmHg 26%
18:00 +24°C° 0 mm 3 mps 648 mmHg 32%
19:00 +20°C° 0 mm 2 mps 648 mmHg 38%
20:00 +18°C° 0 mm 2 mps 647 mmHg 44%
21:00 +18°C° 0 mm 2 mps 647 mmHg 45%
22:00 +17°C° 0 mm 2 mps 647 mmHg 46%
23:00 +17°C° 0 mm 2 mps 647 mmHg 46%

22 May, Saturday

Time Temperature Precipitation Wind Pressure Humidity
00:00 +16°C° 0 mm 2 mps 647 mmHg 44%
01:00 +16°C° 0 mm 1 mps 646 mmHg 41%
02:00 +16°C° 0 mm 1 mps 646 mmHg 39%
03:00 +16°C° 0 mm 1 mps 646 mmHg 38%
04:00 +16°C° 0 mm 1 mps 646 mmHg 37%
05:00 +16°C° 0 mm 1 mps 646 mmHg 37%
06:00 +20°C° 0 mm 1 mps 646 mmHg 31%
07:00 +22°C° 0 mm 1 mps 647 mmHg 26%
08:00 +25°C° 0 mm 1 mps 647 mmHg 20%
09:00 +26°C° 0 mm 2 mps 647 mmHg 21%
10:00 +27°C° 0 mm 4 mps 647 mmHg 22%
11:00 +28°C° 0 mm 5 mps 647 mmHg 22%
12:00 +28°C° 0 mm 5 mps 647 mmHg 23%
13:00 +28°C° 0 mm 6 mps 646 mmHg 24%
14:00 +28°C° 0 mm 7 mps 646 mmHg 26%
15:00 +26°C° 0 mm 7 mps 645 mmHg 32%
16:00 +23°C° 0 mm 6 mps 645 mmHg 39%
17:00 +21°C° 0 mm 6 mps 644 mmHg 46%
18:00 +19°C° 0 mm 5 mps 644 mmHg 55%
19:00 +17°C° 0 mm 3 mps 643 mmHg 65%
20:00 +15°C° 0 mm 2 mps 643 mmHg 74%
21:00 +14°C° 0.1 mm 2 mps 643 mmHg 78%
22:00 +14°C° 0.1 mm 2 mps 643 mmHg 82%
23:00 +14°C° 0.1 mm 2 mps 642 mmHg 86%
Show more